This demonstration page uses our WeatherBlox Daily Observations layout. Learn more.

Left ArrowRight Arrow

Hourly Observations for April 30, 2020

Temp ( °F °C ) Dew Point ( °F °C ) Humidity (%) Winds ( mph kmh ) Pressure ( in mb ) Visibility ( mi km ) Precip ( " mm )
12:51 am 00:51 Clear 79 26.1 35 1.7 20 20 E 13 20 29.86 1011 10 16.0934 0 0
1:51 am 01:51 Clear 75 23.9 37 2.8 25 25 SE 10 17 29.86 1011 10 16.0934 0 0
2:51 am 02:51 Clear 75 23.9 36 2.2 24 24 E 13 20 29.85 1011 10 16.0934 0 0
3:51 am 03:51 Clear 71 21.7 36 2.2 28 28 E 9 15 29.86 1011 10 16.0934 0 0
4:51 am 04:51 Clear 71 21.7 36 2.2 28 28 ESE 10 17 29.86 1011 10 16.0934 0 0
5:51 am 05:51 Sunny 70 21.1 36 2.2 29 29 ESE 9 15 29.89 1012 10 16.0934 0 0
6:51 am 06:51 Sunny 73 22.8 36 2.2 26 26 ESE 12 19 29.91 1013 10 16.0934 0 0
7:51 am 07:51 Sunny 76 24.4 36 2.2 23 23 SE 13 20 29.91 1013 10 16.0934 0 0
8:51 am 08:51 Sunny 81 27.2 37 2.8 21 21 ESE 10 17 29.9 1012 10 16.0934 0 0
9:51 am 09:51 Sunny 87 30.6 38 3.3 18 18 E 13 20 29.88 1012 10 16.0934 0 0
10:51 am 10:51 Sunny 88 31.1 37 2.8 16 16 E 9 15 29.86 1011 10 16.0934 0 0
11:51 am 11:51 Sunny 91 32.8 38 3.3 15 15 SE 9 15 29.83 1010 10 16.0934 0 0
12:51 pm 12:51 Sunny 93 33.9 37 2.8 14 14 Calm 29.78 1008 10 16.0934 0 0
1:51 pm 13:51 Sunny 97 36.1 36 2.2 12 12 SSE 12 19 29.75 1007 10 16.0934 0 0
2:51 pm 14:51 Sunny 98 36.7 36 2.2 11 11 SE 10 17 29.7 1006 10 16.0934 0 0
3:51 pm 15:51 Sunny 97 36.1 37 2.8 12 12 S 9 15 29.68 1005 10 16.0934 0 0
4:51 pm 16:51 Sunny 96 35.6 37 2.8 13 13 VRB 3 6 29.67 1005 10 16.0934 0 0
5:51 pm 17:51 Sunny 95 35 37 2.8 13 13 NW 5 7 29.67 1005 10 16.0934 0 0
6:51 pm 18:51 Sunny 92 33.3 37 2.8 14 14 WNW 15 24 29.68 1005 10 16.0934 0 0
7:51 pm 19:51 Clear 88 31.1 33 0.6 14 14 NW 12 19 29.7 1006 10 16.0934 0 0
8:51 pm 20:51 Clear 82 27.8 34 1.1 18 18 WNW 9 15 29.73 1007 10 16.0934 0 0
9:51 pm 21:51 Clear 80 26.7 34 1.1 19 19 WNW 8 13 29.74 1007 10 16.0934 0 0
10:51 pm 22:51 Clear 75 23.9 32 0 21 21 NNW 9 15 29.75 1007 10 16.0934 0 0
11:51 pm 23:51 Clear 74 23.3 32 0 21 21 S 3 6 29.75 1008 10 16.0934 0 0

Powered by AerisWeather